Temperature
23 23 22 23 26 26 26 28 30 31 31 30 29 29 28 27 25 23 22 23 22 22 22 21 21 20 20 20 19 19 19 19 19 19 19 19 19 18 18 18 18 18 18 18 18 18 18 18 18
22 22 24 26 27 26 28 29 29 30 30 29 28 29 28 26 24 24 23 23 22 21 22 21 21 20 20 20 19 19 19 19 19 19 19 19 19 19 18 18 18 18 18 18 18 18 18 18 18
23 24 26 29 28 28 30 31 31 31 29 29 29 28 27 25 24 24 23 23 22 21 21 21 21 20 20 20 19 19 19 19 19 19 19 19 19 19 18 18 18 18 18 18 18 18 18 18 18
23 26 28 29 30 31 32 32 32 31 30 29 29 28 26 24 24 24 23 23 21 20 20 21 21 20 20 19 19 19 19 19 19 19 19 19 18 19 18 18 18 18 18 18 18 18 18 18 18
25 27 28 29 31 32 33 32 31 31 30 29 28 27 24 23 23 23 23 23 21 20 20 21 20 20 20 19 19 19 19 19 19 19 19 18 18 18 18 18 18 18 18 18 18 18 18 18 18
27 29 29 30 32 33 33 32 31 31 30 29 28 26 23 23 23 23 23 22 21 20 20 21 20 20 20 19 19 19 19 19 19 19 19 18 18 18 18 18 18 18 18 18 18 18 18 18 18
28 29 30 31 32 32 32 32 31 31 30 29 28 26 23 23 23 23 22 22 21 20 20 21 20 20 20 19 19 19 19 19 19 19 18 18 18 18 18 18 18 18 18 18 18 18 18 18 18
29 30 30 32 32 32 32 32 31 30 29 28 28 26 23 22 22 22 22 22 21 20 20 20 20 20 20 19 19 19 19 19 19 19 18 18 18 18 18 18 18 18 18 18 18 18 18 18 18
29 30 30 31 31 32 32 31 31 29 29 28 27 25 23 22 22 22 22 22 21 20 20 19 19 19 19 19 19 19 19 19 19 18 18 18 18 17 18 17 18 18 18 18 18 18 18 18 18
31 30 31 32 32 32 32 31 31 30 29 28 26 24 23 22 22 22 22 22 21 21 20 20 19 19 19 18 19 19 18 18 18 18 18 18 18 17 17 17 18 18 18 18 18 18 18 17 17
31 31 32 32 32 32 31 31 30 30 28 27 25 24 23 22 22 22 22 22 21 20 20 20 19 19 19 19 18 18 18 18 18 18 18 18 18 18 17 17 17 17 17 17 17 17 17 17 17
32 32 32 32 32 31 31 31 30 29 27 25 25 24 23 22 22 22 22 21 21 20 20 20 19 19 19 19 19 18 18 18 18 18 18 18 18 18 18 17 17 17 17 17 17 17 17 17 17
32 32 32 32 32 31 31 30 30 28 26 25 24 24 23 22 22 21 21 21 20 20 20 19 19 19 19 19 19 18 18 18 18 18 18 18 18 17 17 17 17 17 17 17 17 17 17 17 17
32 32 32 31 31 31 31 30 29 27 26 25 24 23 23 22 22 21 21 20 20 20 19 19 19 19 19 19 18 18 18 18 18 18 18 18 17 17 17 17 17 17 17 17 17 16 16 16 17
31 32 31 31 31 32 31 29 28 26 26 25 24 23 22 22 21 20 20 20 20 19 19 19 18 18 18 18 18 18 18 18 18 18 17 17 17 17 17 17 17 16 16 16 16 16 16 17 17
32 31 30 31 32 32 30 28 28 26 26 25 24 23 22 21 21 20 20 20 19 19 19 18 18 18 18 18 18 18 18 18 17 17 17 17 17 17 17 16 16 16 16 16 16 16 16 16 16
31 30 30 31 32 32 31 29 28 27 26 25 24 23 21 20 20 20 20 19 19 19 18 18 18 18 18 18 18 18 18 18 17 17 17 17 16 16 16 16 16 16 16 16 16 16 16 16 16
30 31 31 31 32 31 30 29 29 27 27 25 24 22 21 20 20 19 19 19 19 18 18 18 18 18 18 18 18 18 17 17 17 17 17 16 16 16 16 16 16 16 16 16 16 16 16 16 16
32 31 31 31 32 31 30 30 29 28 27 26 24 22 21 20 19 19 19 19 18 18 18 18 18 18 18 18 17 17 17 17 17 17 17 16 16 16 16 16 16 15 15 15 15 15 16 16 16
31 31 31 31 32 31 30 30 29 28 27 26 24 23 21 20 20 19 19 18 18 18 18 18 18 18 18 18 17 17 17 17 17 17 17 16 16 16 16 16 15 15 15 15 15 15 15 16 16
31 31 31 31 32 32 30 29 28 27 27 26 25 23 22 21 20 19 19 18 18 18 18 18 18 18 18 17 17 17 17 17 17 17 16 16 16 15 15 15 15 15 15 15 15 15 15 15 16
31 32 31 31 30 29 29 27 26 27 27 26 25 24 23 21 20 19 19 18 18 18 18 18 18 18 17 17 17 17 17 17 17 17 16 16 16 15 15 15 15 15 15 15 15 15 15 15 15
31 32 31 30 28 27 26 27 27 27 27 27 26 24 23 21 20 19 19 19 18 18 18 18 18 18 17 17 17 17 17 17 17 17 16 16 16 16 15 15 15 15 15 15 15 15 15 15 15
32 32 31 29 25 22 24 26 27 28 28 27 26 25 23 22 21 20 19 19 18 18 18 18 18 17 17 17 17 17 17 17 17 17 17 16 16 16 15 15 15 15 15 15 15 15 15 15 15
32 30 28 27 24 23 26 27 27 29 29 28 27 25 23 22 21 20 19 19 19 18 18 18 18 18 18 18 17 17 17 17 17 17 17 17 16 16 16 16 16 15 15 15 14 15 14 14 15
31 30 28 26 27 27 27 26 27 29 29 28 27 25 24 23 22 21 20 19 19 18 18 18 18 18 18 18 18 18 17 17 17 17 17 17 17 17 16 16 16 15 15 15 15 14 14 15 15
31 30 31 28 28 27 26 26 26 27 28 28 27 26 25 24 22 21 21 20 19 19 19 18 18 18 18 18 18 18 18 18 17 17 17 17 17 17 17 16 16 16 16 15 15 15 14 14 15
32 31 30 29 27 26 26 25 24 25 27 27 27 26 25 24 23 22 21 20 20 19 19 19 18 18 18 18 18 18 18 18 18 17 17 17 17 17 17 17 16 16 16 16 15 15 15 15 15
30 29 29 29 29 27 26 25 26 26 27 28 28 27 26 25 24 23 22 21 21 20 19 19 18 18 18 18 18 18 18 18 18 18 18 17 17 17 17 17 17 17 16 16 16 16 15 15 15
29 29 29 28 27 28 27 26 27 27 28 28 28 27 26 25 24 24 23 22 21 21 20 19 19 18 18 18 18 18 18 18 18 18 18 18 18 18 17 17 17 17 17 16 16 16 16 15 15
Wind_Speed
11 13 11 8 6 6 7 6 8 9 8 10 8 5 7 10 7 7 6 11 22 23 22 21 20 18 18 17 16 16 15 15 14 14 13 13 12 12 12 12 12 12 12 12 12 12 11 11 11
11 14 11 7 8 8 4 3 7 9 10 7 5 4 7 9 10 9 10 13 23 23 21 20 21 19 18 17 16 16 15 15 14 13 13 12 12 12 11 12 11 11 11 11 11 11 11 11 10
13 17 9 9 11 10 5 5 6 6 7 4 3 3 6 8 8 9 11 16 22 21 21 22 21 19 18 17 16 16 15 14 14 13 12 12 11 11 10 11 11 10 10 10 10 10 10 9 9
9 9 7 9 12 8 6 7 7 4 4 4 2 4 7 7 6 9 13 16 21 21 22 22 21 20 18 17 16 16 15 14 13 12 11 10 10 10 10 9 10 10 9 9 9 9 9 8 7
11 8 11 14 13 5 6 7 6 4 3 3 3 6 8 6 7 12 14 16 20 20 21 22 21 20 18 17 16 15 14 13 12 11 10 10 9 9 9 9 8 8 8 8 7 7 7 7 6
8 10 12 12 5 4 6 5 4 3 4 3 3 5 6 7 9 12 12 14 17 21 21 21 21 19 17 16 15 14 13 13 12 10 10 9 9 8 8 8 8 7 7 7 6 6 5 5 4
11 12 15 13 7 5 5 5 6 6 4 5 3 4 7 9 11 11 11 13 15 20 20 18 19 18 17 16 15 14 13 12 11 10 9 8 8 8 8 7 7 6 6 5 5 4 4 3 2
11 10 15 10 6 6 6 5 4 5 4 4 2 3 8 11 12 12 10 10 13 18 18 17 18 17 16 15 14 14 13 12 10 9 8 7 7 8 7 7 7 6 5 4 4 3 3 3 3
10 9 11 9 8 7 8 7 4 2 1 1 4 8 14 16 14 14 12 12 12 15 15 16 17 16 16 16 15 14 13 11 11 9 7 7 6 7 8 7 8 6 5 5 4 4 4 5 6
7 8 8 8 8 8 9 7 5 3 1 2 9 13 15 15 15 15 14 14 13 14 13 11 13 12 12 13 14 12 11 11 9 8 6 5 2 3 6 9 8 7 6 6 6 6 6 7 6
8 9 9 9 8 8 9 8 6 5 3 4 7 13 14 13 14 14 13 13 13 13 11 11 11 9 9 9 10 8 8 9 7 6 3 2 1 3 5 5 6 7 7 5 5 6 5 3 1
8 10 10 9 9 8 9 8 6 3 3 5 6 11 13 14 13 12 12 12 13 12 11 11 10 7 7 8 7 7 6 5 6 6 3 2 2 2 4 2 2 0 2 3 2 2 1 1 2
11 10 9 9 9 7 7 7 6 1 5 5 6 10 12 13 12 11 10 10 10 10 10 10 10 8 6 6 4 6 5 5 7 7 4 2 2 2 3 3 2 1 1 2 1 1 2 1 1
12 12 11 10 10 8 7 7 5 3 5 3 5 9 10 10 10 9 10 11 10 9 9 10 10 9 7 6 4 4 6 6 8 7 5 3 4 4 2 1 1 1 3 3 2 1 1 1 1
14 15 12 10 10 6 5 6 2 6 6 4 6 9 10 8 7 9 10 11 12 10 9 10 10 10 8 7 5 5 5 7 7 7 6 4 5 4 1 1 1 2 2 1 1 0 1 1 1
17 15 12 8 6 4 4 6 6 8 6 6 7 9 9 7 5 7 10 9 10 10 9 9 10 11 9 6 4 4 5 6 6 8 8 6 5 3 2 1 3 1 1 1 1 0 1 1 1
13 10 10 4 3 5 6 5 8 8 6 7 8 10 10 9 7 6 9 9 9 10 10 8 8 10 9 7 4 5 5 4 5 7 8 6 3 2 2 3 3 2 0 1 1 3 3 2 2
12 12 11 9 4 7 8 4 6 8 6 7 8 10 11 10 10 8 9 10 10 10 10 9 9 9 9 7 5 5 5 3 4 7 7 5 4 3 3 3 2 2 2 3 3 3 1 1 2
13 14 14 12 7 8 8 6 4 7 6 7 8 10 12 11 11 10 10 10 11 10 9 9 10 9 8 6 6 5 5 4 4 6 7 5 4 3 3 3 1 1 4 4 3 2 1 2 1
14 15 14 11 8 9 9 7 5 7 7 8 9 11 12 12 11 11 10 10 11 11 11 10 11 10 9 7 5 5 5 4 4 5 6 6 5 3 3 2 1 3 3 3 3 2 3 1 2
14 13 13 14 14 12 10 5 7 7 7 10 11 11 12 14 13 12 12 12 12 12 12 11 11 11 9 9 6 5 4 3 4 6 5 4 5 3 4 2 3 1 1 4 1 2 2 3 1
14 12 14 15 15 10 8 4 6 8 9 10 11 11 12 12 13 13 13 13 13 13 12 11 11 11 10 9 8 8 6 5 6 5 5 5 5 5 5 3 2 2 2 3 1 3 2 2 2
14 15 16 14 12 10 10 7 6 8 7 10 11 12 12 13 13 13 13 12 13 13 12 11 11 11 10 9 9 8 6 5 5 6 7 6 5 5 6 5 4 1 1 3 4 3 3 3 4
12 14 16 9 4 4 12 11 5 4 4 7 11 12 12 13 13 13 13 12 12 12 13 13 12 11 11 10 9 8 7 5 5 6 7 6 5 5 6 6 5 3 2 3 2 1 1 1 4
11 11 11 8 1 5 12 7 5 6 6 7 11 12 12 13 13 13 14 14 13 13 13 13 13 12 12 11 10 9 7 6 5 5 7 6 5 6 7 6 5 4 3 3 3 3 1 1 0
11 11 10 11 12 8 4 2 4 7 7 8 11 13 13 14 14 14 15 14 13 13 13 14 14 13 12 11 9 9 8 6 6 7 5 6 4 5 9 7 6 5 5 5 4 4 4 3 2
11 11 10 10 13 10 3 1 5 5 5 7 11 12 12 13 15 15 15 15 14 13 13 13 14 12 12 11 10 9 9 8 7 7 7 5 4 5 9 8 7 7 6 5 5 4 4 4 4
11 10 8 8 7 8 3 3 1 2 4 6 9 12 12 13 14 15 15 15 15 14 12 12 13 12 12 12 11 11 10 9 7 6 7 5 5 4 7 8 8 8 7 6 6 5 6 5 5
8 10 9 8 7 8 6 1 5 4 5 7 8 11 12 13 14 14 13 14 14 15 14 12 13 12 12 12 11 10 10 10 9 7 7 6 6 6 6 7 8 8 8 8 7 7 6 7 7
9 11 10 8 8 9 8 2 3 2 4 5 8 9 9 10 12 13 13 13 13 14 15 14 13 14 13 12 11 10 9 9 9 10 9 8 8 7 8 8 8 9 9 9 9 9 9 8 8
Wind_Direction
227 238 237 252 251 249 276 304 360 29 51 47 39 26 52 58 73 104 150 149 124 125 130 129 127 127 126 125 124 124 124 121 119 116 113 109 105 101 98 94 92 91 90 88 85 84 83 82 80
248 249 247 251 259 272 274 12 21 39 60 57 50 42 73 70 84 117 137 137 125 128 135 132 128 127 128 127 126 126 126 123 121 118 115 111 108 104 101 98 95 93 91 89 87 85 83 82 81
257 261 262 254 255 274 322 38 44 56 76 76 69 61 70 87 98 123 135 139 129 131 131 130 131 129 130 129 129 128 126 124 123 120 117 115 113 109 105 101 99 97 93 91 91 88 85 82 80
253 247 246 265 280 307 11 33 25 19 86 90 60 81 80 78 109 129 143 140 126 129 130 133 132 131 131 131 131 129 128 126 125 124 122 120 117 112 107 103 101 100 97 94 91 91 87 83 80
246 260 252 267 277 319 25 26 4 356 32 72 78 89 90 86 113 133 145 134 133 134 131 136 134 133 133 133 132 131 130 129 127 126 126 125 120 118 113 107 105 103 101 97 95 93 89 84 80
254 257 270 280 302 25 34 36 352 11 24 49 96 106 106 122 124 137 145 135 136 132 131 135 135 135 135 135 134 134 134 132 131 130 128 125 123 122 117 110 106 108 105 102 100 99 96 88 82
260 279 282 292 340 28 37 18 1 1 29 42 57 99 119 124 125 137 141 134 134 131 133 141 141 140 140 139 140 138 137 136 135 135 135 135 136 135 131 125 117 114 113 113 112 113 115 113 112
263 285 293 306 353 19 35 23 33 10 17 60 44 93 131 134 138 140 133 130 132 133 140 147 148 146 148 145 144 142 141 141 142 143 150 157 160 157 154 150 137 131 131 132 135 141 150 160 180
267 273 293 348 5 360 5 357 7 60 313 102 86 95 130 141 150 145 145 142 134 134 142 152 148 152 155 151 147 149 150 152 154 159 172 182 185 171 165 147 149 151 156 161 168 182 195 205 209
259 276 316 359 352 340 338 335 322 308 301 125 113 114 132 149 156 159 158 149 145 139 144 143 142 149 150 146 148 157 159 156 167 153 172 180 163 157 144 145 158 164 173 181 194 209 217 226 217
278 302 329 333 336 330 323 326 327 320 341 74 131 136 147 157 165 167 164 161 149 145 142 140 140 142 137 130 147 145 140 149 143 128 131 113 103 117 117 140 161 181 189 193 183 207 227 223 193
274 294 301 306 318 312 314 319 325 350 51 76 128 145 152 161 170 169 167 161 151 150 142 140 128 121 120 128 131 135 137 139 126 111 83 83 79 59 89 85 60 266 158 142 168 203 164 39 6
281 284 290 298 297 304 311 310 302 328 100 115 146 155 162 168 169 166 164 148 147 146 141 129 122 117 109 103 130 134 127 131 119 115 89 61 92 67 80 76 43 312 74 130 168 106 89 137 211
297 301 304 302 295 288 299 303 297 101 116 143 158 157 163 163 166 156 157 147 149 144 134 125 128 123 119 118 108 109 121 120 117 106 96 62 79 71 61 106 103 17 59 50 4 64 109 120 113
292 291 288 283 276 286 319 312 84 124 147 174 162 155 155 160 157 156 158 152 148 141 133 132 137 137 138 139 149 137 137 125 110 113 106 77 78 74 39 133 143 64 82 149 213 254 211 205 180
281 280 284 276 265 274 286 311 126 150 165 167 157 152 149 145 155 156 147 150 148 141 139 150 152 144 144 143 143 130 119 112 116 121 111 89 79 58 344 57 79 32 212 173 161 125 347 36 51
285 288 294 296 253 291 299 313 152 166 169 169 166 159 152 151 159 144 145 150 148 142 144 147 140 142 144 140 135 115 100 101 121 120 110 109 99 66 39 66 57 282 157 75 56 68 30 12 11
310 313 318 322 318 315 307 298 170 164 169 174 170 162 159 165 163 155 158 152 142 143 143 144 136 140 140 136 130 119 120 136 129 111 113 124 115 61 22 110 51 327 63 64 61 54 46 344 319
308 305 312 314 317 308 299 290 190 163 173 170 167 164 167 171 165 161 163 158 152 149 149 152 149 151 148 147 150 142 150 160 138 131 133 131 111 92 10 77 120 31 72 54 48 33 278 240 10
295 298 306 309 307 295 288 276 167 161 173 174 172 170 171 171 165 167 166 166 163 162 163 163 159 159 159 158 155 154 154 167 141 119 135 145 142 162 144 76 135 78 100 73 45 42 339 316 106
294 302 313 313 307 294 286 269 140 162 176 173 175 174 174 174 172 174 175 173 171 172 174 173 167 165 166 163 161 154 146 155 133 138 158 164 159 131 65 75 58 19 160 112 59 17 351 349 3
294 309 311 307 306 313 331 307 154 174 185 177 173 172 173 172 174 177 181 179 178 178 176 169 169 168 167 168 165 164 173 180 167 166 157 166 172 165 157 139 101 349 60 119 195 96 350 325 313
297 309 302 305 316 329 319 288 163 173 183 179 173 173 170 171 176 180 184 183 180 177 176 170 168 168 167 173 171 178 184 186 168 157 152 169 173 184 177 164 159 199 89 95 66 70 2 343 347
288 296 293 294 331 321 271 272 142 149 151 162 164 167 166 167 173 176 179 178 176 174 173 170 167 169 170 178 176 188 195 190 169 165 161 184 175 187 184 179 176 200 167 137 131 135 193 26 15
278 291 300 309 296 237 253 273 107 102 101 133 149 156 161 164 169 173 175 175 175 175 174 169 169 172 174 181 183 188 199 194 187 189 181 200 189 184 181 182 176 198 175 175 172 190 255 199 38
269 273 287 309 312 307 306 343 98 90 94 117 136 147 160 168 171 174 174 174 177 180 175 168 170 173 177 184 185 187 196 200 202 209 208 206 220 183 166 171 176 196 195 199 181 216 204 190 212
265 275 292 294 296 304 322 68 68 72 94 118 134 145 160 169 170 173 172 175 178 179 174 171 169 173 180 185 184 188 198 213 213 195 211 213 209 180 160 172 181 190 199 211 188 224 232 182 202
253 278 293 296 305 308 327 61 134 198 161 145 142 149 157 165 169 172 175 177 177 178 175 174 171 177 182 186 188 193 201 208 211 216 216 216 204 196 163 176 186 193 194 198 213 228 219 216 220
254 255 267 284 289 301 312 62 158 182 167 147 149 149 158 168 169 169 172 176 177 176 175 177 176 180 187 191 193 200 195 201 205 215 218 215 212 199 188 189 193 197 200 199 204 227 229 213 220
258 264 266 265 275 283 294 93 83 100 98 123 131 134 146 158 163 166 169 172 179 181 180 181 182 185 190 192 193 198 201 201 204 210 213 210 210 207 201 200 203 207 207 205 205 216 231 227 223
Height
1505 1505 1505 1507 1503 1500 1500 1486 1476 1474 1476 1481 1485 1486 1488 1494 1501 1512 1509 1509 1512 1513 1519 1523 1527 1531 1534 1536 1539 1541 1543 1544 1546 1547 1548 1549 1550 1551 1552 1553 1554 1555 1556 1556 1557 1558 1558 1558 1559
1505 1506 1508 1504 1499 1504 1495 1481 1480 1479 1481 1485 1487 1489 1491 1497 1501 1506 1509 1510 1512 1515 1520 1524 1528 1532 1535 1537 1540 1542 1544 1546 1547 1549 1550 1551 1552 1553 1554 1555 1556 1556 1557 1558 1559 1559 1560 1560 1561
1505 1506 1506 1496 1493 1495 1486 1477 1477 1479 1482 1485 1488 1490 1494 1500 1504 1507 1510 1511 1514 1517 1521 1524 1529 1533 1536 1538 1541 1543 1545 1547 1549 1550 1551 1552 1553 1554 1555 1556 1557 1558 1559 1560 1560 1561 1562 1562 1563
1506 1505 1501 1493 1488 1476 1474 1474 1476 1479 1482 1486 1488 1491 1497 1503 1506 1508 1510 1513 1515 1518 1521 1525 1529 1533 1537 1539 1542 1544 1546 1548 1549 1551 1552 1553 1554 1555 1557 1558 1559 1559 1560 1561 1562 1563 1563 1564 1565
1507 1502 1497 1492 1481 1472 1470 1475 1478 1480 1483 1486 1489 1494 1500 1504 1506 1508 1511 1513 1515 1519 1522 1526 1530 1534 1537 1540 1543 1545 1547 1549 1550 1552 1553 1554 1556 1557 1558 1559 1560 1561 1561 1562 1563 1564 1565 1565 1566
1505 1496 1495 1489 1475 1471 1472 1476 1479 1481 1484 1486 1489 1494 1501 1504 1505 1508 1512 1514 1517 1519 1522 1526 1530 1534 1537 1541 1543 1545 1547 1549 1551 1553 1554 1555 1557 1558 1559 1560 1561 1562 1562 1563 1564 1565 1565 1566 1567
1503 1494 1490 1480 1475 1474 1475 1478 1480 1482 1484 1488 1490 1494 1501 1503 1505 1509 1512 1514 1517 1520 1523 1527 1530 1534 1538 1541 1544 1546 1548 1550 1552 1553 1555 1556 1558 1559 1559 1560 1561 1562 1563 1563 1564 1565 1566 1567 1568
1498 1493 1487 1477 1477 1477 1475 1478 1482 1485 1486 1490 1491 1494 1501 1505 1506 1509 1513 1514 1517 1521 1523 1527 1531 1534 1538 1541 1544 1546 1549 1550 1552 1554 1556 1557 1558 1559 1560 1561 1562 1562 1563 1564 1564 1565 1566 1567 1568
1495 1494 1489 1479 1479 1478 1477 1479 1482 1485 1487 1489 1492 1495 1500 1504 1507 1510 1513 1515 1518 1522 1525 1529 1532 1535 1539 1542 1544 1547 1549 1551 1553 1555 1556 1557 1558 1560 1560 1561 1562 1562 1563 1563 1564 1565 1566 1567 1568
1490 1491 1484 1477 1477 1478 1479 1480 1482 1483 1486 1489 1493 1497 1501 1504 1507 1510 1513 1516 1519 1522 1526 1530 1533 1536 1540 1543 1545 1547 1549 1551 1553 1555 1556 1558 1559 1560 1561 1562 1562 1562 1563 1563 1564 1565 1566 1566 1567
1486 1483 1479 1477 1478 1479 1479 1480 1480 1483 1486 1490 1493 1496 1500 1504 1507 1510 1513 1515 1519 1522 1526 1529 1533 1536 1539 1542 1545 1548 1550 1552 1553 1555 1556 1558 1559 1560 1561 1561 1562 1562 1563 1563 1564 1565 1565 1567 1568
1484 1481 1480 1478 1478 1479 1479 1480 1481 1483 1488 1491 1493 1496 1500 1503 1506 1508 1511 1515 1518 1521 1525 1528 1532 1535 1538 1542 1546 1548 1550 1552 1553 1554 1556 1557 1558 1560 1560 1561 1561 1562 1563 1563 1564 1565 1565 1566 1567
1481 1478 1477 1477 1477 1477 1478 1479 1481 1484 1487 1490 1492 1495 1499 1502 1505 1507 1510 1513 1517 1520 1525 1528 1532 1535 1539 1542 1546 1548 1550 1552 1553 1554 1555 1557 1558 1558 1559 1560 1560 1561 1562 1563 1563 1564 1564 1565 1566
1480 1477 1477 1476 1475 1475 1475 1477 1479 1484 1488 1490 1492 1494 1497 1499 1502 1505 1509 1512 1515 1518 1523 1527 1531 1535 1539 1542 1545 1547 1549 1551 1553 1554 1555 1556 1557 1558 1558 1559 1559 1560 1561 1561 1563 1563 1564 1564 1565
1479 1477 1476 1474 1472 1472 1475 1476 1478 1484 1487 1489 1491 1493 1496 1500 1502 1504 1508 1512 1515 1518 1523 1526 1531 1534 1538 1541 1545 1547 1549 1551 1552 1553 1554 1555 1556 1557 1558 1559 1559 1559 1560 1561 1562 1563 1563 1564 1565
1477 1477 1479 1471 1469 1469 1476 1483 1479 1483 1485 1487 1490 1493 1497 1499 1502 1504 1507 1510 1514 1518 1522 1527 1531 1534 1537 1540 1544 1547 1549 1551 1552 1553 1554 1555 1556 1556 1557 1558 1558 1559 1559 1561 1562 1562 1563 1564 1565
1477 1480 1477 1470 1466 1466 1470 1476 1477 1480 1482 1485 1488 1492 1496 1499 1502 1505 1506 1509 1513 1517 1521 1526 1530 1533 1537 1540 1543 1546 1548 1550 1552 1553 1553 1554 1555 1556 1557 1557 1557 1558 1560 1560 1561 1561 1562 1563 1564
1482 1475 1472 1470 1463 1464 1468 1470 1472 1476 1479 1483 1487 1491 1495 1498 1501 1504 1507 1510 1513 1517 1521 1525 1529 1533 1536 1539 1543 1545 1548 1550 1552 1553 1553 1554 1555 1555 1556 1557 1557 1558 1559 1559 1560 1561 1562 1563 1563
1471 1472 1472 1467 1460 1463 1465 1466 1468 1472 1477 1481 1485 1489 1493 1496 1500 1503 1506 1509 1513 1516 1520 1524 1527 1532 1535 1538 1541 1544 1547 1550 1551 1552 1553 1554 1555 1555 1556 1556 1557 1557 1558 1558 1559 1560 1561 1563 1563
1469 1472 1470 1463 1456 1459 1462 1463 1464 1470 1475 1479 1483 1487 1492 1496 1499 1502 1505 1508 1511 1515 1519 1523 1527 1530 1534 1537 1540 1543 1547 1549 1551 1552 1553 1554 1554 1555 1556 1556 1557 1557 1557 1558 1558 1559 1561 1562 1563
1468 1469 1468 1465 1457 1454 1460 1467 1467 1470 1473 1477 1481 1485 1489 1493 1497 1500 1503 1507 1510 1514 1517 1521 1525 1529 1532 1536 1540 1543 1546 1548 1550 1551 1552 1553 1554 1555 1555 1556 1556 1557 1558 1558 1558 1559 1560 1562 1563
1470 1460 1460 1461 1466 1468 1468 1483 1475 1469 1471 1473 1477 1482 1487 1491 1495 1498 1501 1505 1508 1512 1516 1519 1523 1527 1531 1534 1538 1541 1544 1547 1549 1550 1552 1553 1554 1554 1555 1555 1555 1556 1557 1557 1558 1558 1560 1561 1562
1463 1457 1458 1462 1471 1479 1480 1479 1475 1465 1469 1469 1473 1478 1483 1488 1492 1496 1499 1502 1506 1510 1514 1517 1521 1525 1529 1533 1536 1540 1544 1546 1548 1550 1551 1552 1553 1554 1554 1555 1555 1556 1556 1557 1557 1558 1559 1560 1561
1456 1458 1458 1463 1479 1506 1489 1481 1476 1463 1463 1464 1469 1475 1481 1486 1490 1494 1498 1501 1505 1508 1512 1516 1519 1523 1527 1531 1535 1539 1542 1545 1547 1549 1550 1551 1552 1553 1553 1554 1554 1555 1556 1556 1556 1557 1558 1559 1560
1457 1470 1480 1484 1496 1501 1475 1474 1470 1458 1457 1460 1466 1473 1479 1484 1489 1493 1497 1500 1503 1507 1511 1514 1518 1522 1526 1529 1533 1537 1541 1543 1545 1547 1549 1550 1551 1551 1552 1553 1553 1554 1554 1555 1556 1556 1557 1558 1558
1458 1464 1483 1495 1491 1479 1471 1477 1466 1456 1458 1461 1466 1472 1478 1483 1488 1491 1495 1499 1502 1506 1509 1512 1516 1520 1524 1528 1531 1535 1539 1541 1544 1546 1548 1549 1550 1551 1551 1552 1552 1552 1553 1554 1554 1556 1556 1556 1557
1458 1459 1456 1471 1473 1478 1479 1474 1468 1460 1461 1462 1466 1471 1476 1481 1486 1490 1494 1498 1501 1505 1508 1511 1514 1518 1522 1526 1530 1533 1537 1540 1542 1544 1546 1547 1549 1549 1549 1550 1550 1550 1551 1552 1553 1554 1555 1556 1556
1449 1452 1458 1469 1484 1489 1481 1482 1484 1470 1464 1463 1465 1470 1475 1480 1484 1488 1493 1496 1500 1504 1507 1511 1513 1517 1520 1524 1528 1531 1534 1537 1540 1542 1544 1545 1546 1547 1547 1547 1548 1548 1549 1550 1551 1552 1553 1553 1554
1455 1457 1458 1461 1465 1482 1488 1485 1465 1465 1462 1462 1464 1469 1473 1478 1482 1486 1491 1495 1499 1503 1506 1509 1512 1515 1518 1522 1525 1529 1532 1534 1537 1539 1540 1542 1543 1544 1545 1545 1546 1546 1547 1548 1548 1549 1551 1551 1551
1451 1455 1457 1470 1471 1468 1474 1481 1459 1460 1461 1462 1463 1468 1472 1476 1480 1484 1489 1493 1497 1501 1504 1507 1510 1513 1516 1519 1523 1526 1529 1531 1533 1535 1537 1538 1539 1540 1541 1542 1543 1543 1544 1545 1546 1546 1547 1548 1549